Location: Alfords
(31.4624°N, 83.9238°W)
Time: 06:28:18
(UTC+00:00)

Hubble Space Telescope - Pass Details

Date: 05 October 2021
Orbit: 535 x 538 km, 28.5° (Epoch: 20 October)

Event Time Altitude Azimuth Distance (km) Brightness Sun altitude
Exits shadow 10:33:46 - 206° (SSW) 2,558 3.9 -13.3°
Reaches altitude 10° 10:37:02 10° 176° (S) 1,776 3.4 -12.6°
Maximum altitude 10:38:32 12° 154° (SSE) 1,667 3.6 -12.3°
Drops below altitude 10° 10:40:02 10° 133° (SE) 1,778 4.1 -11.9°
Sets 10:43:39 0° 100° (E) 2,670 6.2 -11.2°
